| time (UTC) | temp C | wind direction | speed KPH | gust KPH | rain 1hr cm | rain 24hr cm | rain mn cm | humidity % | barometer mb |
| 20260502152330 | 17 | 308 | 6.4 | 17.7 | 0.00 | 3.81 | 0.00 | 76 | 1021.6 |
| 20260502151335 | 17 | 27 | 4.8 | 25.7 | 0.00 | 3.81 | 0.00 | 76 | 1021.5 |
| 20260502150359 | 17 | 350 | 9.7 | 20.9 | 0.00 | 3.81 | 0.00 | 77 | 1021.5 |
| 20260502130343 | 12 | 322 | 6.4 | 16.1 | 0.00 | 4.85 | 0.00 | 93 | 1020.3 |
| 20260502123328 | 12 | 280 | 4.8 | 14.5 | 0.00 | 5.38 | 0.00 | 93 | 1019.8 |
| 20260502122334 | 11 | 265 | 3.2 | 9.7 | 0.00 | 5.38 | 0.00 | 93 | 1019.7 |
| 20260502121341 | 11 | 317 | 3.2 | 8.0 | 0.00 | 5.38 | 0.00 | 93 | 1019.5 |
| 20260502120329 | 11 | 299 | 3.2 | 8.0 | 0.00 | 5.38 | 0.00 | 93 | 1019.5 |
| 20260502115332 | 11 | 322 | 4.8 | 12.9 | 0.00 | 5.74 | 0.00 | 93 | 1019.4 |
| 20260502114338 | 11 | 316 | 3.2 | 6.4 | 0.00 | 5.74 | 0.00 | 93 | 1019.4 |
| 20260502113325 | 11 | 350 | 1.6 | 8.0 | 0.00 | 5.74 | 0.00 | 93 | 1019.3 |
| 20260502112330 | 11 | 331 | 1.6 | 8.0 | 0.00 | 5.74 | 0.00 | 93 | 1019.1 |
| 20260502111356 | 11 | 4 | 3.2 | 9.7 | 0.00 | 5.74 | 0.00 | 93 | 1018.8 |
| 20260502110338 | 11 | 325 | 4.8 | 9.7 | 0.00 | 5.74 | 0.00 | 93 | 1018.7 |
| 20260502105327 | 11 | 323 | 3.2 | 11.3 | 0.00 | 6.07 | 0.00 | 93 | 1018.5 |
| 20260502104332 | 12 | 345 | 4.8 | 12.9 | 0.00 | 6.07 | 0.00 | 93 | 1018.6 |
| 20260502103337 | 12 | 354 | 3.2 | 12.9 | 0.00 | 6.07 | 0.00 | 93 | 1018.4 |
| 20260502102340 | 12 | 12 | 3.2 | 12.9 | 0.00 | 6.07 | 0.00 | 93 | 1018.5 |
| 20260502101344 | 12 | 2 | 4.8 | 14.5 | 0.00 | 6.07 | 0.00 | 93 | 1018.3 |
| 20260502091343 | 12 | 345 | 3.2 | 8.0 | 0.00 | 6.25 | 0.00 | 91 | 1017.1 |
| 20260502090329 | 13 | 40 | 4.8 | 9.7 | 0.00 | 6.25 | 0.00 | 91 | 1017.0 |
| 20260502071329 | 13 | 19 | 6.4 | 17.7 | 0.00 | 8.41 | 0.00 | 92 | 1016.6 |
| 20260502070334 | 13 | 64 | 3.2 | 11.3 | 0.00 | 8.41 | 0.00 | 92 | 1016.7 |
| 20260502065336 | 13 | 39 | 6.4 | 16.1 | 0.00 | 8.46 | 0.00 | 92 | 1016.7 |
| 20260502064402 | 13 | 358 | 3.2 | 16.1 | 0.00 | 8.46 | 0.00 | 93 | 1016.7 |
| 20260502063331 | 13 | 340 | 6.4 | 16.1 | 0.00 | 8.46 | 0.00 | 93 | 1016.8 |
| 20260502062336 | 13 | 15 | 6.4 | 20.9 | 0.00 | 8.46 | 0.00 | 93 | 1016.9 |
| 20260502061339 | 13 | 8 | 3.2 | 16.1 | 0.00 | 8.46 | 0.00 | 93 | 1016.7 |
| 20260502060325 | 13 | 38 | 9.7 | 17.7 | 0.00 | 8.46 | 0.00 | 93 | 1016.7 |
| 20260502055328 | 13 | 13 | 8.0 | 17.7 | 0.00 | 8.53 | 0.00 | 93 | 1016.7 |
| 20260502054333 | 13 | 306 | 9.7 | 25.7 | 0.00 | 8.53 | 0.00 | 93 | 1016.8 |
| 20260502053338 | 13 | 340 | 8.0 | 24.1 | 0.00 | 8.53 | 0.00 | 93 | 1016.7 |
| 20260502052343 | 13 | 21 | 8.0 | 25.7 | 0.00 | 8.53 | 0.00 | 94 | 1016.7 |
| 20260502051327 | 13 | 345 | 6.4 | 22.5 | 0.00 | 8.53 | 0.00 | 94 | 1016.7 |
| 20260502050331 | 13 | 20 | 8.0 | 22.5 | 0.00 | 8.53 | 0.00 | 94 | 1016.5 |
| 20260502045357 | 13 | 17 | 9.7 | 17.7 | 0.00 | 9.02 | 8.53 | 94 | 1016.4 |
| 20260502044325 | 13 | 350 | 8.0 | 17.7 | 0.00 | 9.02 | 8.53 | 94 | 1016.3 |
| 20260502043329 | 13 | 38 | 8.0 | 22.5 | 0.00 | 9.02 | 8.53 | 94 | 1016.2 |
| 20260502042334 | 13 | 2 | 9.7 | 20.9 | 0.00 | 9.02 | 8.53 | 94 | 1016.2 |
| 20260502041343 | 13 | 360 | 6.4 | 24.1 | 0.00 | 9.02 | 8.53 | 94 | 1016.3 |
| 20260502040330 | 13 | 356 | 6.4 | 17.7 | 0.00 | 9.02 | 8.53 | 94 | 1016.4 |
| 20260502035336 | 13 | 10 | 4.8 | 20.9 | 0.00 | 9.02 | 8.53 | 94 | 1016.2 |
| 20260502034324 | 13 | 360 | 6.4 | 22.5 | 0.00 | 9.02 | 8.53 | 94 | 1016.0 |
| 20260502033327 | 13 | 345 | 4.8 | 16.1 | 0.00 | 9.02 | 8.53 | 94 | 1016.1 |
| 20260502032332 | 13 | 350 | 4.8 | 19.3 | 0.00 | 9.02 | 8.53 | 94 | 1016.2 |
| 20260502031339 | 13 | 345 | 6.4 | 19.3 | 0.00 | 9.02 | 8.53 | 94 | 1016.1 |
| 20260502030345 | 13 | 358 | 6.4 | 19.3 | 0.00 | 9.02 | 8.53 | 94 | 1016.0 |
| 20260502025401 | 13 | 55 | 4.8 | 20.9 | 0.00 | 9.02 | 8.53 | 95 | 1015.9 |
| 20260502024325 | 13 | 8 | 6.4 | 22.5 | 0.00 | 9.02 | 8.53 | 95 | 1015.6 |
| 20260502023330 | 13 | 27 | 6.4 | 22.5 | 0.03 | 9.02 | 8.53 | 94 | 1015.4 |
| 20260502022334 | 13 | 17 | 9.7 | 27.4 | 0.03 | 9.02 | 8.53 | 94 | 1015.0 |
| 20260502021337 | 13 | 4 | 9.7 | 27.4 | 0.05 | 9.02 | 8.53 | 94 | 1014.4 |
| 20260502020342 | 14 | 8 | 8.0 | 22.5 | 0.08 | 9.02 | 8.53 | 95 | 1014.2 |
| 20260502015327 | 14 | 356 | 6.4 | 20.9 | 0.10 | 9.02 | 8.53 | 94 | 1014.2 |
| 20260502014351 | 14 | 345 | 11.3 | 24.1 | 0.20 | 9.02 | 8.53 | 94 | 1013.8 |
| 20260502013337 | 14 | 4 | 11.3 | 25.7 | 0.33 | 8.99 | 8.51 | 95 | 1014.0 |
| 20260502012323 | 15 | 358 | 9.7 | 25.7 | 0.36 | 8.97 | 8.48 | 94 | 1014.0 |
| 20260502011329 | 15 | 359 | 8.0 | 29.0 | 0.38 | 8.97 | 8.48 | 95 | 1014.0 |
| 20260502010339 | 15 | 326 | 9.7 | 20.9 | 0.36 | 8.94 | 8.46 | 95 | 1013.8 |
| 20260502005345 | 15 | 24 | 6.4 | 16.1 | 0.38 | 8.92 | 8.43 | 95 | 1013.4 |
| 20260502004330 | 15 | 360 | 9.7 | 25.7 | 0.36 | 8.81 | 8.33 | 95 | 1013.5 |
| 20260502003357 | 15 | 321 | 6.4 | 16.1 | 0.23 | 8.64 | 8.15 | 95 | 1013.8 |
| 20260502002344 | 15 | 316 | 4.8 | 16.1 | 0.28 | 8.61 | 8.13 | 95 | 1014.4 |
| 20260502001329 | 15 | 324 | 4.8 | 17.7 | 0.43 | 8.59 | 8.10 | 95 | 1013.1 |
| 20260502000356 | 16 | 345 | 8.0 | 20.9 | 0.66 | 8.59 | 8.10 | 95 | 1012.8 |
| 20260501235339 | 16 | 29 | 6.4 | 19.3 | 0.61 | 8.53 | 8.05 | 95 | 1012.9 |
| 20260501234324 | 16 | 350 | 8.0 | 17.7 | 0.56 | 8.46 | 7.98 | 95 | 1013.4 |
| 20260501233331 | 16 | 42 | 9.7 | 22.5 | 0.56 | 8.41 | 7.92 | 95 | 1013.3 |
| 20260501232332 | 16 | 22 | 4.8 | 17.7 | 0.64 | 8.33 | 7.85 | 95 | 1013.4 |
| 20260501231356 | 16 | 356 | 6.4 | 17.7 | 0.46 | 8.15 | 7.67 | 95 | 1012.5 |
| 20260501230339 | 16 | 316 | 4.8 | 17.7 | 0.23 | 7.92 | 7.44 | 95 | 1012.8 |
| 20260501225324 | 16 | 53 | 4.8 | 12.9 | 0.23 | 7.92 | 7.44 | 95 | 1011.0 |
| 20260501224350 | 16 | 40 | 3.2 | 20.9 | 0.23 | 7.90 | 7.42 | 95 | 1010.4 |
| 20260501223334 | 16 | 15 | 4.8 | 24.1 | 0.15 | 7.82 | 7.34 | 95 | 1011.0 |
| 20260501222339 | 16 | 322 | 4.8 | 16.1 | 0.03 | 7.70 | 7.21 | 95 | 1012.0 |
| 20260501221326 | 16 | 21 | 4.8 | 17.7 | 0.05 | 7.70 | 7.21 | 95 | 1010.6 |
| 20260501220332 | 16 | 345 | 4.8 | 20.9 | 0.08 | 7.70 | 7.21 | 95 | 1010.0 |
| 20260501215339 | 16 | 263 | 3.2 | 14.5 | 0.33 | 7.70 | 7.21 | 95 | 1010.4 |
| 20260501214323 | 16 | 13 | 6.4 | 19.3 | 0.41 | 7.67 | 7.19 | 95 | 1010.8 |
| 20260501213327 | 16 | 284 | 11.3 | 33.8 | 0.48 | 7.67 | 7.19 | 95 | 1010.7 |
| 20260501212335 | 17 | 27 | 14.5 | 25.7 | 0.56 | 7.67 | 7.19 | 95 | 1010.8 |
| 20260501211338 | 17 | 324 | 4.8 | 22.5 | 0.61 | 7.65 | 7.16 | 95 | 1011.4 |
| 20260501210323 | 17 | 29 | 8.0 | 17.7 | 0.61 | 7.59 | 7.11 | 95 | 1011.0 |
| 20260501205348 | 17 | 345 | 6.4 | 24.1 | 0.38 | 7.34 | 6.86 | 95 | 1011.0 |
| 20260501204331 | 17 | 345 | 8.0 | 22.5 | 0.33 | 7.26 | 6.78 | 95 | 1010.7 |
| 20260501203358 | 17 | 299 | 9.7 | 25.7 | 0.28 | 7.19 | 6.71 | 95 | 1010.6 |
| 20260501202324 | 17 | 336 | 9.7 | 20.9 | 0.36 | 7.11 | 6.63 | 95 | 1010.6 |
| 20260501201331 | 17 | 33 | 8.0 | 22.5 | 0.33 | 7.04 | 6.55 | 95 | 1010.1 |
| 20260501200336 | 17 | 356 | 9.7 | 20.9 | 0.28 | 6.99 | 6.50 | 95 | 1010.4 |
| 20260501195340 | 17 | 325 | 9.7 | 20.9 | 0.25 | 6.96 | 6.48 | 95 | 1009.6 |
| 20260501194327 | 17 | 50 | 6.4 | 17.7 | 0.28 | 6.93 | 6.45 | 95 | 1008.6 |
| 20260501193331 | 17 | 350 | 6.4 | 19.3 | 0.30 | 6.91 | 6.43 | 95 | 1010.3 |
| 20260501192338 | 17 | 285 | 1.6 | 9.7 | 0.23 | 6.76 | 6.27 | 95 | 1011.3 |
| 20260501191403 | 17 | 20 | 6.4 | 16.1 | 0.30 | 6.71 | 6.22 | 95 | 1010.4 |
| 20260501190325 | 17 | 360 | 1.6 | 9.7 | 0.33 | 6.71 | 6.22 | 95 | 1010.2 |
| 20260501185330 | 17 | 40 | 0.0 | 8.0 | 0.38 | 6.71 | 6.22 | 95 | 1010.3 |
| 20260501184334 | 17 | 19 | 1.6 | 9.7 | 0.41 | 6.65 | 6.17 | 95 | 1010.0 |
| 20260501183338 | 17 | 20 | 1.6 | 14.5 | 0.38 | 6.60 | 6.12 | 95 | 1010.6 |
| 20260501182348 | 17 | 40 | 3.2 | 9.7 | 0.30 | 6.50 | 6.02 | 95 | 1010.2 |
| 20260501181332 | 17 | 286 | 3.2 | 17.7 | 0.25 | 6.40 | 5.92 | 95 | 1010.2 |
| 20260501180336 | 17 | 34 | 3.2 | 14.5 | 0.25 | 6.38 | 5.89 | 95 | 1009.3 |
| 20260501175341 | 17 | 112 | 3.2 | 14.5 | 0.20 | 6.32 | 5.84 | 95 | 1008.8 |
| 20260501174326 | 17 | 36 | 1.6 | 14.5 | 0.15 | 6.25 | 5.77 | 95 | 1009.3 |
| 20260501173354 | 16 | 66 | 4.8 | 24.1 | 0.13 | 6.22 | 5.74 | 95 | 1008.6 |
| 20260501172339 | 17 | 25 | 9.7 | 22.5 | 0.13 | 6.20 | 5.71 | 95 | 1010.5 |
| 20260501171340 | 17 | 7 | 8.0 | 20.9 | 0.18 | 6.15 | 5.66 | 95 | 1011.4 |
| 20260501170323 | 17 | 9 | 8.0 | 20.9 | 0.25 | 6.12 | 5.64 | 95 | 1011.6 |
| 20260501165327 | 17 | 9 | 6.4 | 25.7 | 0.38 | 6.12 | 5.64 | 95 | 1012.3 |
| 20260501164334 | 17 | 187 | 3.2 | 19.3 | 0.53 | 6.10 | 5.61 | 95 | 1011.5 |
| 20260501163338 | 17 | 11 | 11.3 | 24.1 | 0.71 | 6.10 | 5.61 | 95 | 1011.4 |
| 20260501162328 | 17 | 360 | 9.7 | 25.7 | 0.79 | 6.07 | 5.59 | 95 | 1011.9 |
| 20260501161333 | 17 | 56 | 9.7 | 25.7 | 0.74 | 5.97 | 5.49 | 95 | 1011.9 |
| 20260501160358 | 17 | 345 | 6.4 | 25.7 | 0.66 | 5.87 | 5.38 | 95 | 1012.9 |
| 20260501155342 | 17 | 345 | 6.4 | 19.3 | 0.56 | 5.74 | 5.26 | 95 | 1013.6 |